,,,PA_Meas_PMT16A,,PR_Meas_QMR101_102,,RH_Meas_QMH101,,SR_Meas_QMS101,,TA_Meas_QMH101,,GenWind,,GenWind,
date,time,status,PA,status,PR,status,RH,status,SR,status,TA,status,DirAvg,status,SpdAvg,
2010-05-11, 00:00:04,VALID,998.858,VALID,0,VALID,94.2487,VALID,0,VALID,23.5256,VALID,110,VALID,0.825,
2010-05-11, 00:01:04,VALID,998.889,VALID,0,VALID,94.2334,VALID,0,VALID,23.5451,VALID,114,VALID,0.980859,
2010-05-11, 00:02:04,VALID,998.837,VALID,0,VALID,94.2411,VALID,0,VALID,23.5451,VALID,114,VALID,0.452734,
2010-05-11, 00:03:04,VALID,998.845,VALID,0,VALID,94.2487,VALID,0,VALID,23.5664,VALID,113,VALID,0.223828,
2010-05-11, 00:04:04,VALID,998.851,VALID,0,VALID,94.2182,VALID,0,VALID,23.5256,VALID,113,VALID,0.40625,
2010-05-11, 00:05:04,VALID,998.839,VALID,0,VALID,94.2563,VALID,0,VALID,23.5469,VALID,115,VALID,0.405469,
2010-05-11, 00:06:04,VALID,998.82,VALID,0,VALID,94.2411,VALID,0,VALID,23.5256,VALID,113,VALID,0.437109,
2010-05-11, 00:07:04,VALID,998.836,VALID,0,VALID,94.2487,VALID,0,VALID,23.5664,VALID,112,VALID,0.377344,
2010-05-11, 00:08:04,VALID,998.798,VALID,0,VALID,94.2411,VALID,0,VALID,23.5469,VALID,112,VALID,0,
2010-05-11, 00:09:04,VALID,998.813,VALID,0,VALID,94.2487,VALID,0,VALID,23.5469,VALID,98,VALID,0.401953,
2010-05-11, 00:10:04,VALID,998.816,VALID,0,VALID,94.2411,VALID,0,VALID,23.5664,VALID,86,VALID,0.466016,
2010-05-11, 00:11:04,VALID,998.791,VALID,0,VALID,94.2487,VALID,0,VALID,23.5469,VALID,78,VALID,0.498437,
2010-05-11, 00:12:04,VALID,998.796,VALID,0,VALID,94.2487,VALID,0,VALID,23.5256,VALID,72,VALID,0.513672,
2010-05-11, 00:13:04,VALID,998.784,VALID,0,VALID,94.2563,VALID,0,VALID,23.5256,VALID,72,VALID,0.595312,
2010-05-11, 00:14:04,VALID,998.806,VALID,0,VALID,94.2563,VALID,0,VALID,23.5469,VALID,65,VALID,0.435937,
2010-05-11, 00:15:04,VALID,998.753,VALID,0,VALID,94.264,VALID,0,VALID,23.5664,VALID,36,VALID,0.580078,
2010-05-11, 00:16:04,VALID,998.743,VALID,0,VALID,94.2563,VALID,0,VALID,23.5256,VALID,50,VALID,0.478516,
2010-05-11, 00:17:04,VALID,998.784,VALID,0,VALID,94.264,VALID,0,VALID,23.5451,VALID,47,VALID,0.570313,
2010-05-11, 00:18:04,VALID,998.715,VALID,0,VALID,94.2563,VALID,0,VALID,23.5451,VALID,43,VALID,0.705078,
2010-05-11, 00:19:04,VALID,998.717,VALID,0,VALID,94.2563,VALID,0,VALID,23.5451,VALID,42,VALID,0.687109,
2010-05-11, 00:20:04,VALID,998.715,VALID,0,VALID,94.2563,VALID,0,VALID,23.5451,VALID,52,VALID,0.873828,
2010-05-11, 00:21:04,VALID,998.7,VALID,0,VALID,94.264,VALID,0,VALID,23.5646,VALID,58,VALID,0.898828,
2010-05-11, 00:22:04,VALID,998.708,VALID,0,VALID,94.2563,VALID,0,VALID,23.5451,VALID,60,VALID,0.677734,
2010-05-11, 00:23:04,VALID,998.697,VALID,0,VALID,94.2563,VALID,0,VALID,23.5433,VALID,60,VALID,0.390625,
2010-05-11, 00:24:04,VALID,998.693,VALID,0,VALID,94.2716,VALID,0,VALID,23.5628,VALID,60,VALID,0.431641,
2010-05-11, 00:25:04,VALID,998.672,VALID,0,VALID,94.2563,VALID,0.112286,VALID,23.5628,VALID,60,VALID,0.459766,
2010-05-11, 00:26:04,VALID,998.643,VALID,0,VALID,94.2563,VALID,0,VALID,23.5628,VALID,60,VALID,0.293359,
2010-05-11, 00:27:04,VALID,998.641,VALID,0,VALID,94.2487,VALID,0,VALID,23.5823,VALID,60,VALID,0.0625,
2010-05-11, 00:28:04,VALID,998.647,VALID,0,VALID,94.2563,VALID,0,VALID,23.5823,VALID,87,VALID,0.517578,
2010-05-11, 00:29:04,VALID,998.588,VALID,0,VALID,94.264,VALID,0,VALID,23.5628,VALID,82,VALID,0.397266,
2010-05-11, 00:30:04,VALID,998.581,VALID,0,VALID,94.2487,VALID,0,VALID,23.5823,VALID,83,VALID,0.364453,
2010-05-11, 00:31:04,VALID,998.537,VALID,0,VALID,94.2563,VALID,0,VALID,23.5823,VALID,123,VALID,0.960938,
2010-05-11, 00:32:04,VALID,998.551,VALID,0.5,VALID,94.2487,VALID,0,VALID,23.6232,VALID,127,VALID,0.351172,
2010-05-11, 00:33:04,VALID,998.525,VALID,0,VALID,94.264,VALID,0,VALID,23.6019,VALID,135,VALID,0.597656,
2010-05-11, 00:34:04,VALID,998.52,VALID,0,VALID,94.264,VALID,0,VALID,23.6019,VALID,135,VALID,0.285156,
2010-05-11, 00:35:04,VALID,998.479,VALID,0,VALID,94.2563,VALID,0,VALID,23.6019,VALID,135,VALID,0,
2010-05-11, 00:36:04,VALID,998.463,VALID,0,VALID,94.2563,VALID,0,VALID,23.6214,VALID,135,VALID,0,
2010-05-11, 00:37:04,VALID,998.45,VALID,0,VALID,94.2487,VALID,0,VALID,23.6409,VALID,135,VALID,0.360156,
2010-05-11, 00:38:04,VALID,998.413,VALID,0,VALID,94.2563,VALID,0,VALID,23.6214,VALID,157,VALID,0.10625,
2010-05-11, 00:39:04,VALID,998.361,VALID,0,VALID,94.2487,VALID,0,VALID,23.6427,VALID,157,VALID,0,
2010-05-11, 00:40:04,VALID,998.344,VALID,0,VALID,94.2487,VALID,0,VALID,23.6409,VALID,157,VALID,0,
2010-05-11, 00:41:04,VALID,998.315,VALID,0,VALID,94.2334,VALID,0,VALID,23.6019,VALID,174,VALID,0,
2010-05-11, 00:42:04,VALID,998.272,VALID,0,VALID,94.2563,VALID,0,VALID,23.6427,VALID,174,VALID,0.403906,
2010-05-11, 00:43:04,VALID,998.227,VALID,0,VALID,94.2487,VALID,0,VALID,23.6409,VALID,179,VALID,0.808594,
2010-05-11, 00:44:04,VALID,998.218,VALID,0,VALID,94.264,VALID,0,VALID,23.6622,VALID,173,VALID,1.00391,
2010-05-11, 00:45:04,VALID,998.185,VALID,0,VALID,94.2334,VALID,0,VALID,23.6622,VALID,170,VALID,0.910547,
2010-05-11, 00:46:04,VALID,998.144,VALID,0,VALID,94.2334,VALID,0,VALID,23.6622,VALID,164,VALID,0.778516,
2010-05-11, 00:47:04,VALID,998.162,VALID,0,VALID,94.2487,VALID,0,VALID,23.6817,VALID,172,VALID,1.09336,
2010-05-11, 00:48:04,VALID,998.126,VALID,0,VALID,94.2334,VALID,0,VALID,23.6799,VALID,173,VALID,1.31992,
2010-05-11, 00:49:04,VALID,998.095,VALID,0,VALID,94.2258,VALID,0,VALID,23.7012,VALID,172,VALID,0.884766,
2010-05-11, 00:50:04,VALID,998.062,VALID,0,VALID,94.2258,VALID,0,VALID,23.7012,VALID,182,VALID,1.17852,
2010-05-11, 00:51:04,VALID,998.051,VALID,0,VALID,94.2411,VALID,0,VALID,23.6817,VALID,184,VALID,0.833984,
2010-05-11, 00:52:04,VALID,998.001,VALID,0,VALID,94.2258,VALID,0,VALID,23.7012,VALID,180,VALID,1.02734,
2010-05-11, 00:53:04,VALID,997.991,VALID,0,VALID,94.2182,VALID,0,VALID,23.7207,VALID,180,VALID,0.805469,
2010-05-11, 00:54:04,VALID,997.972,VALID,0,VALID,94.2258,VALID,0,VALID,23.7207,VALID,176,VALID,0.762891,
2010-05-11, 00:55:04,VALID,997.983,VALID,0,VALID,94.2334,VALID,0,VALID,23.7207,VALID,176,VALID,0.574609,
2010-05-11, 00:56:04,VALID,997.932,VALID,0,VALID,94.2334,VALID,0,VALID,23.7402,VALID,169,VALID,0.694531,
2010-05-11, 00:57:04,VALID,997.927,VALID,0,VALID,94.2258,VALID,0,VALID,23.7189,VALID,167,VALID,0.714453,
2010-05-11, 00:58:04,VALID,997.932,VALID,0,VALID,94.2029,VALID,0,VALID,23.7189,VALID,149,VALID,0.736719,
2010-05-11, 00:59:04,VALID,997.92,VALID,0,VALID,94.2182,VALID,0,VALID,23.7402,VALID,148,VALID,0.583203,
2010-05-11, 01:00:04,VALID,997.908,VALID,0,VALID,94.2182,VALID,0,VALID,23.7402,VALID,147,VALID,0.71875,
2010-05-11, 01:01:04,VALID,997.89,VALID,0,VALID,94.2182,VALID,0,VALID,23.7189,VALID,141,VALID,0.539844,
2010-05-11, 01:02:04,VALID,997.869,VALID,0,VALID,94.1953,VALID,0.112286,VALID,23.6994,VALID,141,VALID,0.471094,
2010-05-11, 01:03:04,VALID,997.89,VALID,0,VALID,94.2334,VALID,0,VALID,23.7189,VALID,141,VALID,0.142969,
2010-05-11, 01:04:04,VALID,997.886,VALID,0,VALID,94.2029,VALID,0,VALID,23.7189,VALID,135,VALID,0.586328,
2010-05-11, 01:05:04,VALID,997.909,VALID,0,VALID,94.2258,VALID,0.112286,VALID,23.7189,VALID,129,VALID,0.508984,
2010-05-11, 01:06:04,VALID,997.899,VALID,0,VALID,94.2258,VALID,0.112286,VALID,23.7384,VALID,129,VALID,0.726172,
2010-05-11, 01:07:04,VALID,997.928,VALID,0,VALID,94.2029,VALID,0.112286,VALID,23.7189,VALID,125,VALID,0.548047,
2010-05-11, 01:08:04,VALID,997.937,VALID,0,VALID,94.2029,VALID,0,VALID,23.6994,VALID,125,VALID,0.590234,
2010-05-11, 01:09:04,VALID,997.899,VALID,0,VALID,94.2105,VALID,0,VALID,23.7402,VALID,125,VALID,0.538281,
2010-05-11, 01:10:04,VALID,997.893,VALID,0,VALID,94.2182,VALID,0,VALID,23.6994,VALID,125,VALID,0.586328,
2010-05-11, 01:11:04,VALID,997.898,VALID,0,VALID,94.1953,VALID,0.112286,VALID,23.6994,VALID,125,VALID,0.427734,
2010-05-11, 01:12:04,VALID,997.888,VALID,0,VALID,94.2258,VALID,0,VALID,23.6994,VALID,125,VALID,0.233594,
2010-05-11, 01:13:04,VALID,997.895,VALID,0,VALID,94.1953,VALID,0.112286,VALID,23.6799,VALID,125,VALID,0.311719,
2010-05-11, 01:14:04,VALID,997.868,VALID,0,VALID,94.2182,VALID,0,VALID,23.6799,VALID,125,VALID,0.2125,
2010-05-11, 01:15:04,VALID,997.833,VALID,0,VALID,94.2029,VALID,0,VALID,23.6604,VALID,125,VALID,0.289063,
2010-05-11, 01:16:04,VALID,997.854,VALID,0,VALID,94.2182,VALID,0.112286,VALID,23.6409,VALID,125,VALID,0.318359,
2010-05-11, 01:17:04,VALID,997.848,VALID,0,VALID,94.2258,VALID,0.112286,VALID,23.6214,VALID,125,VALID,0.158984,
2010-05-11, 01:18:04,VALID,997.85,VALID,0,VALID,94.2105,VALID,0,VALID,23.6214,VALID,125,VALID,0,
2010-05-11, 01:19:04,VALID,997.843,VALID,0,VALID,94.2029,VALID,0,VALID,23.6214,VALID,125,VALID,0,
2010-05-11, 01:20:04,VALID,997.864,VALID,0,VALID,94.2258,VALID,0,VALID,23.6019,VALID,125,VALID,0,
2010-05-11, 01:21:04,VALID,997.79,VALID,0,VALID,94.2258,VALID,0.112286,VALID,23.6019,VALID,125,VALID,0,
2010-05-11, 01:22:04,VALID,997.788,VALID,0,VALID,94.2258,VALID,0,VALID,23.6019,VALID,125,VALID,0,
2010-05-11, 01:23:04,VALID,997.755,VALID,0,VALID,94.2411,VALID,0,VALID,23.6019,VALID,125,VALID,0,
2010-05-11, 01:24:04,VALID,997.773,VALID,0,VALID,94.2487,VALID,0,VALID,23.6019,VALID,125,VALID,0,
2010-05-11, 01:25:04,VALID,997.717,VALID,0,VALID,94.2411,VALID,0.112286,VALID,23.6214,VALID,125,VALID,0,
2010-05-11, 01:26:04,VALID,997.714,VALID,0,VALID,94.2258,VALID,0,VALID,23.6232,VALID,125,VALID,0,
2010-05-11, 01:27:04,VALID,997.714,VALID,0,VALID,94.2334,VALID,0.112286,VALID,23.6019,VALID,125,VALID,0,
2010-05-11, 01:28:04,VALID,997.741,VALID,0,VALID,94.2487,VALID,0,VALID,23.5823,VALID,125,VALID,0,
2010-05-11, 01:29:04,VALID,997.763,VALID,0,VALID,94.2258,VALID,0,VALID,23.6232,VALID,125,VALID,0,
2010-05-11, 01:30:04,VALID,997.766,VALID,0,VALID,94.2334,VALID,0,VALID,23.5823,VALID,125,VALID,0,
2010-05-11, 01:31:04,VALID,997.782,VALID,0,VALID,94.2487,VALID,0,VALID,23.6232,VALID,125,VALID,0,
2010-05-11, 01:32:04,VALID,997.795,VALID,0,VALID,94.2411,VALID,0.112286,VALID,23.6214,VALID,125,VALID,0,
2010-05-11, 01:33:04,VALID,997.773,VALID,0,VALID,94.2334,VALID,0.112286,VALID,23.6214,VALID,122,VALID,0.000390625,
2010-05-11, 01:34:04,VALID,997.779,VALID,0,VALID,94.2411,VALID,0.112286,VALID,23.6214,VALID,23,VALID,0.657031,
2010-05-11, 01:35:04,VALID,997.76,VALID,0,VALID,94.2411,VALID,0.112286,VALID,23.6427,VALID,6,VALID,0.9375,
2010-05-11, 01:36:04,VALID,997.774,VALID,0,VALID,94.2563,VALID,0,VALID,23.6019,VALID,6,VALID,0.916406,
2010-05-11, 01:37:04,VALID,997.763,VALID,0,VALID,94.2563,VALID,0,VALID,23.5823,VALID,358,VALID,0.947266,
2010-05-11, 01:38:04,VALID,997.763,VALID,0,VALID,94.2487,VALID,0.112286,VALID,23.6019,VALID,358,VALID,0.856641,
2010-05-11, 01:39:04,VALID,997.766,VALID,0,VALID,94.2411,VALID,0,VALID,23.6232,VALID,358,VALID,0.857813,
2010-05-11, 01:40:04,VALID,997.796,VALID,0,VALID,94.2487,VALID,0,VALID,23.5823,VALID,359,VALID,0.843359,
2010-05-11, 01:41:04,VALID,997.786,VALID,0,VALID,94.2487,VALID,0,VALID,23.5823,VALID,9,VALID,0.952344,
2010-05-11, 01:42:04,VALID,997.805,VALID,0,VALID,94.2563,VALID,0,VALID,23.6036,VALID,16,VALID,1.0875,
2010-05-11, 01:43:04,VALID,997.792,VALID,0,VALID,94.2563,VALID,0,VALID,23.5433,VALID,19,VALID,0.994922,
2010-05-11, 01:44:04,VALID,997.792,VALID,0,VALID,94.2487,VALID,0,VALID,23.5451,VALID,19,VALID,1.03555,
2010-05-11, 01:45:04,VALID,997.798,VALID,0,VALID,94.2563,VALID,0.112286,VALID,23.5238,VALID,19,VALID,1.07617,
2010-05-11, 01:46:04,VALID,997.787,VALID,0,VALID,94.2563,VALID,0,VALID,23.5433,VALID,15,VALID,0.883594,
2010-05-11, 01:47:04,VALID,997.773,VALID,0,VALID,94.264,VALID,0,VALID,23.5646,VALID,11,VALID,1.00156,
2010-05-11, 01:48:04,VALID,997.794,VALID,0,VALID,94.2487,VALID,0,VALID,23.5646,VALID,11,VALID,0.890625,
2010-05-11, 01:49:04,VALID,997.8,VALID,0,VALID,94.2563,VALID,0,VALID,23.5628,VALID,359,VALID,0.780469,
2010-05-11, 01:50:04,VALID,997.808,VALID,0,VALID,94.2563,VALID,0.112286,VALID,23.5628,VALID,4,VALID,0.738281,
2010-05-11, 01:51:04,VALID,997.815,VALID,0,VALID,94.2411,VALID,0,VALID,23.5841,VALID,360,VALID,0.939062,
2010-05-11, 01:52:04,VALID,997.814,VALID,0,VALID,94.2411,VALID,0,VALID,23.5628,VALID,345,VALID,0.726953,
2010-05-11, 01:53:04,VALID,997.789,VALID,0,VALID,94.2487,VALID,0,VALID,23.5433,VALID,345,VALID,0.889844,
2010-05-11, 01:54:04,VALID,997.835,VALID,0,VALID,94.264,VALID,0.112286,VALID,23.5433,VALID,345,VALID,0.582812,
2010-05-11, 01:55:04,VALID,997.821,VALID,0,VALID,94.2487,VALID,0.112286,VALID,23.5433,VALID,355,VALID,0.653125,
2010-05-11, 01:56:04,VALID,997.87,VALID,0,VALID,94.2411,VALID,0,VALID,23.5646,VALID,358,VALID,1.05234,
2010-05-11, 01:57:04,VALID,997.878,VALID,0,VALID,94.2334,VALID,0,VALID,23.5238,VALID,4,VALID,0.808203,
2010-05-11, 01:58:05,VALID,997.893,VALID,0,VALID,94.2258,VALID,0,VALID,23.5433,VALID,20,VALID,1.37773,
2010-05-11, 01:59:05,VALID,997.905,VALID,0,VALID,94.2487,VALID,0,VALID,23.5256,VALID,29,VALID,1.38281,
2010-05-11, 02:00:05,VALID,997.903,VALID,0,VALID,94.2411,VALID,0,VALID,23.5043,VALID,27,VALID,1.29062,
2010-05-11, 02:01:05,VALID,997.906,VALID,0,VALID,94.2487,VALID,0,VALID,23.5061,VALID,27,VALID,1.14102,
2010-05-11, 02:02:05,VALID,997.889,VALID,0,VALID,94.2563,VALID,0,VALID,23.4848,VALID,33,VALID,1.23477,
2010-05-11, 02:03:05,VALID,997.889,VALID,0,VALID,94.2563,VALID,0,VALID,23.5238,VALID,29,VALID,1.53281,
2010-05-11, 02:04:05,VALID,997.893,VALID,0,VALID,94.264,VALID,0,VALID,23.5433,VALID,28,VALID,1.29492,
2010-05-11, 02:05:05,VALID,997.855,VALID,0,VALID,94.264,VALID,0,VALID,23.5043,VALID,22,VALID,1.37383,
2010-05-11, 02:06:05,VALID,997.872,VALID,0,VALID,94.2563,VALID,0,VALID,23.5433,VALID,22,VALID,1.45195,
2010-05-11, 02:07:05,VALID,997.824,VALID,0,VALID,94.2563,VALID,0,VALID,23.5433,VALID,20,VALID,1.01563,
2010-05-11, 02:08:05,VALID,997.826,VALID,0,VALID,94.264,VALID,0,VALID,23.5646,VALID,16,VALID,0.976563,
2010-05-11, 02:09:05,VALID,997.807,VALID,0,VALID,94.2563,VALID,0,VALID,23.5433,VALID,6,VALID,1.1793,
2010-05-11, 02:10:05,VALID,997.813,VALID,0,VALID,94.2716,VALID,0,VALID,23.5628,VALID,2,VALID,0.720312,
2010-05-11, 02:11:05,VALID,997.811,VALID,0,VALID,94.2563,VALID,0,VALID,23.5628,VALID,3,VALID,0.849609,
2010-05-11, 02:12:05,VALID,997.805,VALID,0,VALID,94.2563,VALID,0,VALID,23.5628,VALID,358,VALID,0.992969,
2010-05-11, 02:13:05,VALID,997.833,VALID,0,VALID,94.264,VALID,0,VALID,23.5433,VALID,5,VALID,0.758984,
2010-05-11, 02:14:05,VALID,997.767,VALID,0,VALID,94.2716,VALID,0,VALID,23.5841,VALID,5,VALID,0.771875,
2010-05-11, 02:15:05,VALID,997.808,VALID,0,VALID,94.264,VALID,0,VALID,23.5646,VALID,5,VALID,0.567187,
2010-05-11, 02:16:05,VALID,997.839,VALID,0,VALID,94.264,VALID,0,VALID,23.5646,VALID,5,VALID,0.341016,
2010-05-11, 02:17:05,VALID,997.846,VALID,0,VALID,94.2792,VALID,0,VALID,23.5646,VALID,23,VALID,0.409766,
2010-05-11, 02:18:05,VALID,997.872,VALID,0,VALID,94.264,VALID,0,VALID,23.5841,VALID,23,VALID,0.204297,
2010-05-11, 02:19:05,VALID,997.853,VALID,0,VALID,94.2563,VALID,0,VALID,23.5841,VALID,23,VALID,0.210156,
2010-05-11, 02:20:05,VALID,997.887,VALID,0,VALID,94.264,VALID,0,VALID,23.5841,VALID,23,VALID,0.015625,
2010-05-11, 02:21:05,VALID,997.858,VALID,0,VALID,94.2563,VALID,0,VALID,23.5628,VALID,23,VALID,0,
2010-05-11, 02:22:05,VALID,997.849,VALID,0,VALID,94.2563,VALID,0,VALID,23.5841,VALID,23,VALID,0.101172,
2010-05-11, 02:23:05,VALID,997.86,VALID,0,VALID,94.264,VALID,0,VALID,23.5628,VALID,23,VALID,0,
2010-05-11, 02:24:05,VALID,997.86,VALID,0,VALID,94.264,VALID,0.112286,VALID,23.5628,VALID,23,VALID,0.247266,
2010-05-11, 02:25:05,VALID,997.853,VALID,0,VALID,94.264,VALID,0,VALID,23.5841,VALID,23,VALID,0.228906,
2010-05-11, 02:26:05,VALID,997.852,VALID,0,VALID,94.2563,VALID,0,VALID,23.5646,VALID,23,VALID,0,
2010-05-11, 02:27:05,VALID,997.856,VALID,0,VALID,94.264,VALID,0,VALID,23.5646,VALID,23,VALID,0,
2010-05-11, 02:28:05,VALID,997.866,VALID,0,VALID,94.2716,VALID,0,VALID,23.5628,VALID,23,VALID,0,
2010-05-11, 02:29:05,VALID,997.862,VALID,0,VALID,94.2716,VALID,0,VALID,23.5628,VALID,24,VALID,0,
2010-05-11, 02:30:05,VALID,997.868,VALID,0,VALID,94.2792,VALID,0,VALID,23.5433,VALID,24,VALID,0,
2010-05-11, 02:31:05,VALID,997.842,VALID,0,VALID,94.264,VALID,0,VALID,23.5646,VALID,24,VALID,0,
2010-05-11, 02:32:05,VALID,997.842,VALID,0,VALID,94.2792,VALID,0,VALID,23.5841,VALID,24,VALID,0,
2010-05-11, 02:33:05,VALID,997.844,VALID,0,VALID,94.2563,VALID,0,VALID,23.5841,VALID,38,VALID,0.705469,
2010-05-11, 02:34:05,VALID,997.808,VALID,0,VALID,94.2563,VALID,0,VALID,23.5628,VALID,48,VALID,0.367188,
2010-05-11, 02:35:05,VALID,997.797,VALID,0,VALID,94.2792,VALID,0,VALID,23.6036,VALID,70,VALID,0.572266,
2010-05-11, 02:36:05,VALID,997.768,VALID,0,VALID,94.2716,VALID,0,VALID,23.6036,VALID,70,VALID,0.627344,
2010-05-11, 02:37:05,VALID,997.782,VALID,0,VALID,94.2563,VALID,0,VALID,23.5823,VALID,70,VALID,0.573828,
2010-05-11, 02:38:05,VALID,997.765,VALID,0,VALID,94.264,VALID,0,VALID,23.6019,VALID,70,VALID,0.65,
2010-05-11, 02:39:05,VALID,997.716,VALID,0,VALID,94.2258,VALID,0,VALID,23.5823,VALID,66,VALID,0.854688,
2010-05-11, 02:40:05,VALID,997.696,VALID,0,VALID,94.264,VALID,0,VALID,23.6214,VALID,59,VALID,0.860547,
2010-05-11, 02:41:05,VALID,997.681,VALID,0,VALID,94.2563,VALID,0,VALID,23.6019,VALID,57,VALID,0.970312,
2010-05-11, 02:42:05,VALID,997.702,VALID,0,VALID,94.2563,VALID,0,VALID,23.6817,VALID,47,VALID,0.903516,
2010-05-11, 02:43:05,VALID,997.666,VALID,0,VALID,94.264,VALID,0,VALID,23.6799,VALID,46,VALID,0.726563,
2010-05-11, 02:44:05,VALID,997.673,VALID,0,VALID,94.2258,VALID,0,VALID,23.6817,VALID,46,VALID,0.895703,
2010-05-11, 02:45:05,VALID,997.623,VALID,0,VALID,94.264,VALID,0,VALID,23.6604,VALID,46,VALID,0.553906,
2010-05-11, 02:46:05,VALID,997.651,VALID,0,VALID,94.2487,VALID,0.112286,VALID,23.6799,VALID,41,VALID,0.686719,
2010-05-11, 02:47:05,VALID,997.665,VALID,0,VALID,94.2487,VALID,0,VALID,23.7012,VALID,41,VALID,0.848437,
2010-05-11, 02:48:05,VALID,997.618,VALID,0,VALID,94.2487,VALID,0,VALID,23.6799,VALID,34,VALID,1.18086,
2010-05-11, 02:49:05,VALID,997.634,VALID,0,VALID,94.2334,VALID,0,VALID,23.6799,VALID,39,VALID,1.14414,
2010-05-11, 02:50:05,VALID,997.646,VALID,0,VALID,94.264,VALID,0,VALID,23.7012,VALID,30,VALID,1.12148,
2010-05-11, 02:51:05,VALID,997.636,VALID,0,VALID,94.264,VALID,0.112286,VALID,23.7384,VALID,25,VALID,1.02578,
2010-05-11, 02:52:05,VALID,997.647,VALID,0,VALID,94.2411,VALID,0,VALID,23.7207,VALID,26,VALID,1.37227,
2010-05-11, 02:53:05,VALID,997.618,VALID,0,VALID,94.2411,VALID,0,VALID,23.7189,VALID,29,VALID,0.904297,
2010-05-11, 02:54:05,VALID,997.632,VALID,0,VALID,94.2258,VALID,0,VALID,23.7384,VALID,22,VALID,0.885547,
2010-05-11, 02:55:05,VALID,997.613,VALID,0,VALID,94.2334,VALID,0,VALID,23.7579,VALID,41,VALID,1.1168,
2010-05-11, 02:56:05,VALID,997.6,VALID,0,VALID,94.2411,VALID,0,VALID,23.7579,VALID,45,VALID,1.04453,
2010-05-11, 02:57:05,VALID,997.594,VALID,0,VALID,94.2334,VALID,0,VALID,23.7597,VALID,45,VALID,1.1,
2010-05-11, 02:58:05,VALID,997.586,VALID,0,VALID,94.2182,VALID,0,VALID,23.7597,VALID,35,VALID,1.2418,
2010-05-11, 02:59:05,VALID,997.587,VALID,0,VALID,94.2182,VALID,0,VALID,23.6799,VALID,35,VALID,1.04375,
2010-05-11, 03:00:05,VALID,997.592,VALID,0,VALID,94.2411,VALID,0,VALID,23.6604,VALID,30,VALID,0.874219,
2010-05-11, 03:01:05,VALID,997.567,VALID,0,VALID,94.2411,VALID,0,VALID,23.6994,VALID,44,VALID,1.04961,
2010-05-11, 03:02:05,VALID,997.566,VALID,0,VALID,94.2334,VALID,0,VALID,23.6604,VALID,40,VALID,1.01992,
2010-05-11, 03:03:05,VALID,997.582,VALID,0,VALID,94.2563,VALID,0,VALID,23.6799,VALID,40,VALID,0.691016,
2010-05-11, 03:04:05,VALID,997.578,VALID,0,VALID,94.264,VALID,0,VALID,23.7207,VALID,44,VALID,0.671484,
2010-05-11, 03:05:05,VALID,997.529,VALID,0,VALID,94.2258,VALID,0,VALID,23.6994,VALID,54,VALID,0.968359,
2010-05-11, 03:06:05,VALID,997.546,VALID,0,VALID,94.2182,VALID,0,VALID,23.7207,VALID,59,VALID,0.777344,
2010-05-11, 03:07:05,VALID,997.554,VALID,0,VALID,94.2029,VALID,0,VALID,23.6604,VALID,59,VALID,0.895312,
2010-05-11, 03:08:05,VALID,997.53,VALID,0,VALID,94.2105,VALID,0,VALID,23.6817,VALID,59,VALID,0.995313,
2010-05-11, 03:09:05,VALID,997.542,VALID,0,VALID,94.2334,VALID,0,VALID,23.6604,VALID,61,VALID,0.941406,
2010-05-11, 03:10:05,VALID,997.571,VALID,0,VALID,94.2105,VALID,0,VALID,23.7207,VALID,63,VALID,1.17734,
2010-05-11, 03:11:05,VALID,997.539,VALID,0,VALID,94.2258,VALID,0,VALID,23.6994,VALID,67,VALID,0.921094,
2010-05-11, 03:12:05,VALID,997.548,VALID,0,VALID,94.264,VALID,0,VALID,23.7402,VALID,83,VALID,0.862109,
2010-05-11, 03:13:05,VALID,997.548,VALID,0,VALID,94.2258,VALID,0,VALID,23.7207,VALID,85,VALID,0.980078,
2010-05-11, 03:14:05,VALID,997.554,VALID,0,VALID,94.2182,VALID,0,VALID,23.7207,VALID,89,VALID,0.914844,
2010-05-11, 03:15:05,VALID,997.563,VALID,0,VALID,94.2411,VALID,0,VALID,23.7207,VALID,99,VALID,0.732422,
2010-05-11, 03:16:05,VALID,997.608,VALID,0,VALID,94.2411,VALID,0,VALID,23.7207,VALID,99,VALID,0.457812,
2010-05-11, 03:17:05,VALID,997.593,VALID,0,VALID,94.2258,VALID,0,VALID,23.7207,VALID,100,VALID,0.943359,
2010-05-11, 03:18:05,VALID,997.617,VALID,0,VALID,94.2258,VALID,0,VALID,23.7207,VALID,116,VALID,0.729297,
2010-05-11, 03:19:05,VALID,997.604,VALID,0,VALID,94.2411,VALID,0,VALID,23.7189,VALID,125,VALID,0.682813,
2010-05-11, 03:20:05,VALID,997.59,VALID,0,VALID,94.2258,VALID,0,VALID,23.7402,VALID,130,VALID,1.04219,
2010-05-11, 03:21:05,VALID,997.593,VALID,0,VALID,94.2105,VALID,0,VALID,23.7597,VALID,120,VALID,1.06328,
2010-05-11, 03:22:05,VALID,997.591,VALID,0,VALID,94.2182,VALID,0,VALID,23.7384,VALID,122,VALID,1.07422,
2010-05-11, 03:23:05,VALID,997.573,VALID,0,VALID,94.2182,VALID,0,VALID,23.7189,VALID,121,VALID,1.07305,
2010-05-11, 03:24:05,VALID,997.595,VALID,0,VALID,94.2029,VALID,0,VALID,23.7402,VALID,111,VALID,1.07305,
2010-05-11, 03:25:05,VALID,997.612,VALID,0,VALID,94.1953,VALID,0,VALID,23.7402,VALID,99,VALID,0.810938,
2010-05-11, 03:26:05,VALID,997.614,VALID,0,VALID,94.2029,VALID,0,VALID,23.7597,VALID,138,VALID,0.89375,
2010-05-11, 03:27:05,VALID,997.593,VALID,0,VALID,94.2105,VALID,0,VALID,23.7793,VALID,123,VALID,0.830469,
2010-05-11, 03:28:05,VALID,997.64,VALID,0,VALID,94.1953,VALID,0,VALID,23.7793,VALID,92,VALID,0.805078,
2010-05-11, 03:29:05,VALID,997.631,VALID,0,VALID,94.2258,VALID,0,VALID,23.7597,VALID,78,VALID,0.620703,
2010-05-11, 03:30:05,VALID,997.613,VALID,0,VALID,94.2182,VALID,0,VALID,23.7793,VALID,84,VALID,0.528516,
2010-05-11, 03:31:05,VALID,997.599,VALID,0,VALID,94.2105,VALID,0,VALID,23.7579,VALID,90,VALID,0.765234,
2010-05-11, 03:32:05,VALID,997.595,VALID,0,VALID,94.1724,VALID,0,VALID,23.7579,VALID,90,VALID,0.947266,
2010-05-11, 03:33:05,VALID,997.582,VALID,0,VALID,94.1877,VALID,0,VALID,23.7189,VALID,90,VALID,0.582812,
2010-05-11, 03:34:05,VALID,997.56,VALID,0,VALID,94.1953,VALID,0,VALID,23.7384,VALID,97,VALID,0.635938,
2010-05-11, 03:35:05,VALID,997.554,VALID,0,VALID,94.1877,VALID,0,VALID,23.7793,VALID,111,VALID,0.788672,
2010-05-11, 03:36:05,VALID,997.555,VALID,0,VALID,94.1953,VALID,0,VALID,23.7597,VALID,114,VALID,0.921094,
2010-05-11, 03:37:05,VALID,997.558,VALID,0,VALID,94.1953,VALID,0,VALID,23.7384,VALID,123,VALID,0.677734,
2010-05-11, 03:38:05,VALID,997.596,VALID,0,VALID,94.2182,VALID,0,VALID,23.7775,VALID,123,VALID,0.430469,
2010-05-11, 03:39:05,VALID,997.601,VALID,0,VALID,94.1648,VALID,0,VALID,23.7988,VALID,119,VALID,0.781641,
2010-05-11, 03:40:05,VALID,997.583,VALID,0,VALID,94.18,VALID,0,VALID,23.7988,VALID,115,VALID,0.933984,
2010-05-11, 03:41:05,VALID,997.596,VALID,0,VALID,94.2029,VALID,0,VALID,23.7988,VALID,121,VALID,0.444922,
2010-05-11, 03:42:05,VALID,997.57,VALID,0,VALID,94.2029,VALID,0,VALID,23.797,VALID,123,VALID,0.551953,
2010-05-11, 03:43:05,VALID,997.598,VALID,0,VALID,94.2105,VALID,0,VALID,23.8378,VALID,120,VALID,0.808203,
2010-05-11, 03:44:05,VALID,997.63,VALID,0,VALID,94.2105,VALID,0,VALID,23.836,VALID,135,VALID,0.8625,
2010-05-11, 03:45:05,VALID,997.6,VALID,0,VALID,94.1877,VALID,0,VALID,23.8573,VALID,134,VALID,0.895312,
2010-05-11, 03:46:05,VALID,997.619,VALID,0,VALID,94.1953,VALID,0.112286,VALID,23.8555,VALID,133,VALID,0.865234,